DW7628 Weather Reports


Display with metric or nautical units.
time (UTC)temp
F
wind
direction
speed
MPH
gust
MPH
rain 1hr
in
rain 24hr
in
rain mn
in
humidity
%
barometer
mb
20260905232807 74 233 0.0 0.0 0.00 0.00 0.00 62 1016.2
20260905232307 75 233 0.0 0.0 0.00 0.00 0.00 62 1016.3
20260905231806 75 212 0.0 0.0 0.00 0.00 0.00 62 1016.4
20260905230305 75 141 0.0 0.0 0.00 0.00 0.00 62 1016.5
20260905225806 75 145 0.0 0.0 0.00 0.00 0.00 62 1016.4
20260905224306 75 59 0.0 0.0 0.00 0.00 0.00 61 1016.4
20260905223806 75 228 0.0 0.0 0.00 0.00 0.00 61 1016.5
20260905223306 75 228 0.0 0.0 0.00 0.00 0.00 61 1016.5
20260905222807 75 227 0.0 0.0 0.00 0.00 0.00 61 1016.4
20260905221306 75 226 0.0 0.0 0.00 0.00 0.00 62 1016.4
20260905220827 76 180 0.0 0.0 0.00 0.00 0.00 62 1016.4
20260905215805 76 233 0.0 0.0 0.00 0.00 0.00 62 1016.5
20260905214805 76 231 0.0 0.0 0.00 0.00 0.00 61 1016.5
20260905214306 76 225 0.0 0.0 0.00 0.00 0.00 61 1016.4
20260905213805 76 199 0.0 0.0 0.00 0.00 0.00 61 1016.4
20260905213306 76 163 0.0 0.0 0.00 0.00 0.00 60 1016.4
20260905212806 76 125 0.0 0.0 0.00 0.00 0.00 60 1016.4
20260905212307 76 84 0.0 0.0 0.00 0.00 0.00 60 1016.4
20260905211805 77 35 0.0 0.0 0.00 0.00 0.00 60 1016.4
20260905210806 77 18 0.0 0.0 0.00 0.00 0.00 60 1016.4
20260905210306 77 18 0.0 0.0 0.00 0.00 0.00 60 1016.4
20260905205806 77 77 0.0 0.0 0.00 0.00 0.00 60 1016.4
20260905205306 77 205 0.0 0.0 0.00 0.00 0.00 60 1016.3
20260905204305 77 163 0.0 0.0 0.00 0.00 0.00 59 1016.3
20260905203806 77 218 0.0 0.0 0.00 0.00 0.00 58 1016.5
20260905203306 78 167 0.0 0.0 0.00 0.00 0.00 58 1016.4
20260905202806 78 38 0.0 0.0 0.00 0.00 0.00 57 1016.4
20260905202306 78 44 0.0 0.0 0.00 0.00 0.00 57 1016.4
20260905201806 78 42 0.0 0.0 0.00 0.00 0.00 56 1016.5
20260905200806 78 145 0.0 0.0 0.00 0.00 0.00 56 1016.4
20260905200305 78 156 0.0 0.0 0.00 0.00 0.00 56 1016.4
20260905195307 79 18 0.0 0.0 0.00 0.00 0.00 56 1016.5
20260905194806 79 3 0.0 0.0 0.00 0.00 0.00 56 1016.4
20260905194305 79 120 0.0 0.0 0.00 0.00 0.00 56 1016.4
20260905193305 79 52 0.0 0.0 0.00 0.00 0.00 56 1016.4
20260905192805 79 24 0.0 0.0 0.00 0.00 0.00 56 1016.2
20260905192306 79 15 0.0 0.0 0.00 0.00 0.00 55 1016.3
20260905191307 80 118 0.0 0.0 0.00 0.00 0.00 54 1016.2
20260905190306 80 68 0.0 0.0 0.00 0.00 0.00 54 1016.0
20260905185806 80 70 0.0 0.0 0.00 0.00 0.00 55 1015.9
20260905184805 80 64 0.0 0.0 0.00 0.00 0.00 57 1015.9
20260905184306 80 53 0.0 0.0 0.00 0.00 0.00 56 1015.8
20260905183805 81 161 0.0 0.0 0.00 0.00 0.00 56 1015.7
20260905183306 81 16 0.0 0.0 0.00 0.00 0.00 56 1015.7
20260905182805 81 22 0.0 0.0 0.00 0.00 0.00 55 1015.7
20260905181305 82 26 0.0 0.0 0.00 0.00 0.00 54 1015.5
20260905180805 82 73 0.0 0.0 0.00 0.00 0.00 54 1015.5
20260905180306 82 68 0.0 0.0 0.00 0.00 0.00 53 1015.5
20260905175806 82 26 0.0 0.0 0.00 0.00 0.00 52 1015.5
20260905175306 82 31 0.0 0.0 0.00 0.00 0.00 52 1015.5
20260905174305 83 178 0.0 0.0 0.00 0.00 0.00 49 1015.5
20260905173806 83 67 0.0 0.0 0.00 0.00 0.00 48 1015.5
20260905173305 83 221 0.0 0.0 0.00 0.00 0.00 45 1015.4
20260905172805 83 229 0.0 0.0 0.00 0.00 0.00 44 1015.4
20260905172306 84 154 0.0 0.0 0.00 0.00 0.00 44 1015.4
20260905171806 84 273 0.0 0.0 0.00 0.00 0.00 43 1015.4
20260905171305 84 325 0.0 0.0 0.00 0.00 0.00 43 1015.4
20260905170305 84 293 0.0 0.0 0.00 0.00 0.00 43 1015.4
20260905164805 85 199 0.0 0.0 0.00 0.00 0.00 41 1015.4
20260905164306 85 281 0.0 0.0 0.00 0.00 0.00 41 1015.4
20260905163305 85 156 0.0 0.0 0.00 0.00 0.00 41 1015.4
20260905162806 85 268 0.0 0.0 0.00 0.00 0.00 40 1015.4
20260905162306 86 291 0.0 0.0 0.00 0.00 0.00 40 1015.4
20260905161305 86 255 0.0 0.0 0.00 0.00 0.00 40 1015.5
20260905160806 86 306 0.0 0.0 0.00 0.00 0.00 40 1015.4
20260905160305 86 282 0.0 0.0 0.00 0.00 0.00 40 1015.4
20260905155805 87 261 0.0 0.0 0.00 0.00 0.00 39 1015.4
20260905155306 87 201 0.0 0.0 0.00 0.00 0.00 39 1015.4
20260905154805 87 173 0.0 0.0 0.00 0.00 0.00 39 1015.4
20260905153805 88 267 0.0 0.0 0.00 0.00 0.00 39 1015.4
20260905153305 88 184 0.0 0.0 0.00 0.00 0.00 38 1015.4
20260905152805 89 205 0.0 0.0 0.00 0.00 0.00 37 1015.4
20260905152306 89 139 0.0 0.0 0.00 0.00 0.00 37 1015.5
20260905151806 89 283 0.0 0.0 0.00 0.00 0.00 37 1015.4
20260905151305 89 124 0.0 0.0 0.00 0.00 0.00 37 1015.4
20260905150805 89 157 0.0 0.0 0.00 0.00 0.00 37 1015.4
20260905150307 89 288 0.0 0.0 0.00 0.00 0.00 36 1015.3
20260905144806 89 166 0.0 0.0 0.00 0.00 0.00 36 1015.3
20260905143805 89 152 0.0 0.0 0.00 0.00 0.00 36 1015.3
20260905142806 89 198 0.0 0.0 0.00 0.00 0.00 36 1015.3
20260905142306 89 266 0.0 0.0 0.00 0.00 0.00 35 1015.4
20260905140305 90 235 0.0 0.0 0.00 0.00 0.00 35 1015.4
20260905135805 90 157 0.0 0.0 0.00 0.00 0.00 35 1015.4
20260905135306 90 248 0.0 0.0 0.00 0.00 0.00 34 1015.4
20260905134305 91 221 0.0 0.0 0.00 0.00 0.00 34 1015.3
20260905133305 91 108 0.0 0.0 0.00 0.00 0.00 33 1015.3
20260905132805 91 262 0.0 0.0 0.00 0.00 0.00 33 1015.4
20260905132306 92 144 0.0 0.0 0.00 0.00 0.00 33 1015.4
20260905131806 92 249 0.0 0.0 0.00 0.00 0.00 32 1015.5
20260905131305 91 172 0.0 0.0 0.00 0.00 0.00 33 1015.5
20260905125805 92 246 0.0 0.0 0.00 0.00 0.00 32 1015.6
20260905125306 91 217 0.0 0.0 0.00 0.00 0.00 33 1015.6
20260905124805 91 276 0.0 0.0 0.00 0.00 0.00 32 1015.7
20260905124305 92 166 0.0 0.0 0.00 0.00 0.00 32 1015.8
20260905123805 92 252 0.0 0.0 0.00 0.00 0.00 32 1015.9
20260905123305 92 121 0.0 0.0 0.00 0.00 0.00 31 1015.9
20260905122307 93 335 0.0 0.0 0.00 0.00 0.00 31 1015.9
20260905121805 93 241 0.0 0.0 0.00 0.00 0.00 30 1015.9
20260905121305 92 210 0.0 0.0 0.00 0.00 0.00 31 1016.0
20260905120805 92 222 0.0 0.0 0.00 0.00 0.00 31 1016.0
20260905115806 92 73 0.0 0.0 0.00 0.00 0.00 30 1016.2
20260905115306 92 111 0.0 0.0 0.00 0.00 0.00 30 1016.1
20260905114805 92 253 0.0 0.0 0.00 0.00 0.00 30 1016.3
20260905114306 92 227 0.0 0.0 0.00 0.00 0.00 30 1016.2
20260905113804 91 190 0.0 0.0 0.00 0.00 0.00 30 1016.3
20260905112805 91 240 0.0 0.0 0.00 0.00 0.00 30 1016.4
20260905112306 91 51 0.0 0.0 0.00 0.00 0.00 30 1016.4
20260905111305 91 302 0.0 0.0 0.00 0.00 0.00 31 1016.5
20260905110805 91 117 0.0 0.0 0.00 0.00 0.00 31 1016.5
20260905105306 91 220 0.0 0.0 0.00 0.00 0.00 31 1016.4
20260905104304 91 136 0.0 0.0 0.00 0.00 0.00 32 1016.5
20260905103806 91 233 0.0 0.0 0.00 0.00 0.00 32 1016.6
20260905102805 90 35 0.0 0.0 0.00 0.00 0.00 33 1016.6
20260905102306 90 59 0.0 0.0 0.00 0.00 0.00 33 1016.7
20260905101804 90 247 0.0 0.0 0.00 0.00 0.00 33 1016.7
20260905101305 90 148 0.0 0.0 0.00 0.00 0.00 32 1016.7
20260905100805 90 102 0.0 0.0 0.00 0.00 0.00 33 1016.7
20260905095805 90 138 0.0 0.0 0.00 0.00 0.00 34 1016.7
20260905094804 90 265 0.0 0.0 0.00 0.00 0.00 33 1016.8
20260905094305 90 206 0.0 0.0 0.00 0.00 0.00 34 1016.8
20260905093304 89 308 0.0 0.0 0.00 0.00 0.00 34 1016.9
20260905092805 89 320 0.0 0.0 0.00 0.00 0.00 34 1016.9
20260905091805 89 79 0.0 0.0 0.00 0.00 0.00 35 1016.9
20260905090804 88 250 0.0 0.0 0.00 0.00 0.00 35 1016.9
20260905090305 87 13 0.0 0.0 0.00 0.00 0.00 35 1017.0
20260905085306 86 62 0.0 0.0 0.00 0.00 0.00 35 1017.0
20260905084805 86 199 0.0 0.0 0.00 0.00 0.00 36 1017.0
20260905084305 86 357 0.0 0.0 0.00 0.00 0.00 35 1017.0
20260905082804 86 9 0.0 0.0 0.00 0.00 0.00 35 1016.9
20260905082307 86 3 0.0 0.0 0.00 0.00 0.00 35 1016.8
20260905081804 86 228 0.0 0.0 0.00 0.00 0.00 34 1016.8
20260905080804 86 230 0.0 0.0 0.00 0.00 0.00 37 1016.7
20260905080304 86 6 0.0 0.0 0.00 0.00 0.00 37 1016.7
20260905075805 85 167 0.0 0.0 0.00 0.00 0.00 37 1016.7
20260905075306 85 269 0.0 0.0 0.00 0.00 0.00 39 1016.6
20260905074305 84 186 0.0 0.0 0.00 0.00 0.00 39 1016.6
20260905073804 83 1 0.0 0.0 0.00 0.00 0.00 40 1016.6
20260905073304 84 15 0.0 0.0 0.00 0.00 0.00 38 1016.6
20260905072804 84 27 0.0 0.0 0.00 0.00 0.00 39 1016.6
20260905072306 83 23 0.0 0.0 0.00 0.00 0.00 40 1016.6
20260905071804 83 20 0.0 0.0 0.00 0.00 0.00 39 1016.6
20260905071305 83 36 0.0 0.0 0.00 0.00 0.00 39 1016.6
20260905070804 84 28 0.0 0.0 0.00 0.00 0.00 38 1016.6
20260905070305 84 55 0.0 0.0 0.00 0.00 0.00 38 1016.6
20260905065804 83 37 0.0 0.0 0.00 0.00 0.00 38 1016.5
20260905065306 84 18 0.0 0.0 0.00 0.00 0.00 37 1016.5
20260905064805 84 308 0.0 0.0 0.00 0.00 0.00 38 1016.5
20260905063804 85 178 0.0 0.0 0.00 0.00 0.00 37 1016.4
20260905063305 84 178 0.0 0.0 0.00 0.00 0.00 38 1016.4
20260905062804 83 178 0.0 0.0 0.00 0.00 0.00 38 1016.4
20260905062306 83 180 0.0 0.0 0.00 0.00 0.00 38 1016.4
20260905061804 83 189 0.0 0.0 0.00 0.00 0.00 38 1016.3
20260905061304 82 216 0.0 0.0 0.00 0.00 0.00 40 1016.3
20260905060804 81 216 0.0 0.0 0.00 0.00 0.00 44 1016.3
20260905060304 79 216 0.0 0.0 0.00 0.00 0.00 46 1016.3
20260905055804 77 216 0.0 0.0 0.00 0.00 0.00 48 1016.2
20260905055306 75 216 0.0 0.0 0.00 0.00 0.00 52 1016.2
20260905054304 74 216 0.0 0.0 0.00 0.00 0.00 55 1016.1
20260905053804 73 221 0.0 0.0 0.00 0.00 0.00 57 1016.1
20260905053304 73 221 0.0 0.0 0.00 0.00 0.00 57 1016.1
20260905052805 73 221 0.0 0.0 0.00 0.00 0.00 60 1016.0
20260905052306 72 221 0.0 0.0 0.00 0.00 0.00 61 1016.0
20260905051805 72 221 0.0 0.0 0.00 0.00 0.00 62 1015.9
20260905051304 72 221 0.0 0.0 0.00 0.00 0.00 65 1015.9
20260905050804 72 221 0.0 0.0 0.00 0.00 0.00 65 1015.8
20260905050304 72 221 0.0 0.0 0.00 0.00 0.00 65 1015.8
20260905045804 72 228 0.0 0.0 0.00 0.00 0.00 65 1015.7
20260905045305 72 230 0.0 0.0 0.00 0.00 0.00 65 1015.7
20260905044805 72 230 0.0 0.0 0.00 0.00 0.00 65 1015.7
20260905044304 72 230 0.0 0.0 0.00 0.00 0.00 65 1015.6
20260905043804 72 230 0.0 0.0 0.00 0.00 0.00 64 1015.5
20260905043304 72 230 0.0 0.0 0.00 0.00 0.00 65 1015.5
20260905042804 72 230 0.0 0.0 0.00 0.00 0.00 64 1015.5
20260905042307 72 230 0.0 0.0 0.00 0.00 0.00 64 1015.4
20260905041304 72 231 0.0 0.0 0.00 0.00 0.00 66 1015.3
20260905040304 72 231 0.0 0.0 0.00 0.00 0.00 66 1015.4
20260905035805 72 231 0.0 0.0 0.00 0.00 0.00 66 1015.4
20260905035306 72 231 0.0 0.0 0.00 0.00 0.00 66 1015.4
20260905034804 72 231 0.0 0.0 0.00 0.00 0.00 67 1015.4
20260905033805 72 231 0.0 0.0 0.00 0.00 0.00 66 1015.4
20260905033304 72 231 0.0 0.0 0.00 0.00 0.00 66 1015.4
20260905032804 72 231 0.0 0.0 0.00 0.00 0.00 66 1015.4
20260905032306 72 231 0.0 0.0 0.00 0.00 0.00 65 1015.4
20260905031804 72 231 0.0 0.0 0.00 0.00 0.00 65 1015.4
20260905030304 72 231 0.0 0.0 0.00 0.00 0.00 65 1015.4
20260905025306 72 236 0.0 0.0 0.00 0.00 0.00 64 1015.4
20260905024304 72 241 0.0 0.0 0.00 0.00 0.00 64 1015.4
20260905023804 72 241 0.0 0.0 0.00 0.00 0.00 63 1015.4
20260905023304 72 241 0.0 0.0 0.00 0.00 0.00 63 1015.4
20260905022306 73 241 0.0 0.0 0.00 0.00 0.00 63 1015.4
20260905021304 73 241 0.0 0.0 0.00 0.00 0.00 62 1015.4
20260905020305 73 241 0.0 0.0 0.00 0.00 0.00 63 1015.3
20260905015804 73 241 0.0 0.0 0.00 0.00 0.00 64 1015.3
20260905015306 73 241 0.0 0.0 0.00 0.00 0.00 64 1015.3
20260905014803 73 241 0.0 0.0 0.00 0.00 0.00 64 1015.3
20260905014304 73 241 0.0 0.0 0.00 0.00 0.00 64 1015.3
20260905013803 73 241 0.0 0.0 0.00 0.00 0.00 63 1015.3
20260905013304 73 241 0.0 0.0 0.00 0.00 0.00 63 1015.3
20260905012803 73 241 0.0 0.0 0.00 0.00 0.00 63 1015.3
20260905012306 73 241 0.0 0.0 0.00 0.00 0.00 63 1015.3
20260905011804 73 241 0.0 0.0 0.00 0.00 0.00 63 1015.4
20260905011304 73 241 0.0 0.0 0.00 0.00 0.00 63 1015.4
20260905010304 73 241 0.0 0.0 0.00 0.00 0.00 64 1015.4
20260905005804 73 241 0.0 0.0 0.00 0.00 0.00 64 1015.4
20260905005307 73 241 0.0 0.0 0.00 0.00 0.00 64 1015.3
20260905004806 73 241 0.0 0.0 0.00 0.00 0.00 64 1015.4
20260905004306 73 241 0.0 0.0 0.00 0.00 0.00 64 1015.4
20260905003807 73 241 0.0 0.0 0.00 0.00 0.00 64 1015.4
20260905003307 73 241 0.0 0.0 0.00 0.00 0.00 64 1015.4
20260905002806 73 241 0.0 0.0 0.00 0.00 0.00 64 1015.4
20260905002306 73 241 0.0 0.0 0.00 0.00 0.00 64 1015.5
20260905001806 74 241 0.0 0.0 0.00 0.00 0.00 64 1015.5
20260905001306 74 241 0.0 0.0 0.00 0.00 0.00 64 1015.5
20260905000806 74 241 0.0 0.0 0.00 0.00 0.00 64 1015.5
20260905000306 74 241 0.0 0.0 0.00 0.00 0.00 64 1015.5
20260904235806 74 240 0.0 0.0 0.00 0.00 0.00 64 1015.5
20260904234806 74 240 0.0 0.0 0.00 0.00 0.00 64 1015.5
20260904234306 74 240 0.0 0.0 0.00 0.00 0.00 64 1015.6
20260904233807 74 240 0.0 0.0 0.00 0.00 0.00 63 1015.6
20260904233306 74 240 0.0 0.0 0.00 0.00 0.00 63 1015.6